FW9535 Weather Reports


Display with metric or nautical units.
time (UTC)temp
F
wind
direction
speed
MPH
gust
MPH
rain 1hr
in
rain 24hr
in
rain mn
in
humidity
%
barometer
mb
20260903022031 77 198 7.0 9.0 0.00 0.00 0.00 43 1008.5
20260903020529 77 221 5.0 9.0 0.00 0.00 0.00 43 1008.4
20260903015026 76 199 9.0 14.0 0.00 0.00 0.00 43 1008.5
20260903013525 75 225 7.0 10.0 0.00 0.00 0.00 44 1008.7
20260903012024 77 233 3.0 5.0 0.00 0.00 0.00 45 1008.8
20260903010520 75 185 13.0 17.0 0.00 0.00 0.00 47 1008.7
20260903005015 76 59 6.0 11.0 0.00 0.00 0.00 48 1008.6
20260903003511 75 194 7.0 9.0 0.00 0.00 0.00 49 1008.7
20260903002007 76 211 5.0 7.0 0.00 0.00 0.00 52 1008.3
20260903000502 76 210 6.0 9.0 0.00 0.00 0.00 53 1008.3
20260902235002 76 227 4.0 6.0 0.00 0.00 0.00 53 1008.4
20260902233501 76 212 7.0 13.0 0.00 0.00 0.00 53 1008.4
20260902232002 75 218 2.0 5.0 0.00 0.00 0.00 54 1008.5
20260902230457 74 290 2.0 2.0 0.00 0.00 0.00 57 1008.1
20260902224957 72 300 2.0 2.0 0.00 0.00 0.00 60 1008.5
20260902223454 71 187 1.0 2.0 0.00 0.00 0.00 63 1008.5
20260902221952 68 135 4.0 6.0 0.00 0.00 0.00 67 1008.6
20260902220452 69 239 2.0 3.0 0.00 0.00 0.00 66 1008.4
20260902214951 71 195 2.0 2.0 0.00 0.00 0.00 59 1007.9
20260902213446 70 316 1.0 2.0 0.00 0.00 0.00 63 1007.5
20260902211942 67 323 2.0 2.0 0.00 0.00 0.00 67 1007.0
20260902210439 64 319 3.0 5.0 0.00 0.00 0.00 73 1007.2
20260902204934 61 320 1.0 2.0 0.00 0.00 0.00 75 1007.2
20260902203430 62 319 2.0 2.0 0.00 0.00 0.00 74 1007.0
20260902201927 63 324 0.0 1.0 0.00 0.00 0.00 71 1006.8
20260902200423 64 302 0.0 1.0 0.00 0.00 0.00 67 1006.9
20260902194920 65 296 0.0 0.0 0.00 0.00 0.00 66 1007.3
20260902193416 66 311 0.0 1.0 0.00 0.00 0.00 65 1007.4
20260902191913 63 309 2.0 2.0 0.00 0.00 0.00 70 1007.1
20260902190410 61 322 1.0 1.0 0.00 0.00 0.00 77 1007.3
20260902184909 64 315 1.0 1.0 0.00 0.00 0.00 70 1007.3
20260902183407 64 251 2.0 2.0 0.00 0.00 0.00 70 1007.8
20260902181907 64 266 1.0 1.0 0.00 0.00 0.00 71 1007.9
20260902180404 64 261 1.0 1.0 0.00 0.00 0.00 69 1008.1
20260902174901 64 277 1.0 1.0 0.00 0.00 0.00 70 1008.7
20260902173359 65 304 1.0 1.0 0.00 0.00 0.00 70 1008.7
20260902171854 66 271 1.0 1.0 0.00 0.00 0.00 67 1008.9
20260902170352 65 298 0.0 0.0 0.00 0.00 0.00 65 1008.7
20260902164848 66 300 0.0 0.0 0.00 0.00 0.00 65 1008.6
20260902163342 64 278 1.0 2.0 0.00 0.00 0.00 69 1009.0
20260902161842 65 297 0.0 0.0 0.00 0.00 0.00 64 1008.9
20260902160340 64 300 0.0 1.0 0.00 0.00 0.00 66 1009.0
20260902154838 63 290 1.0 2.0 0.00 0.00 0.00 69 1009.6
20260902153338 64 298 0.0 0.0 0.00 0.00 0.00 71 1009.5
20260902151837 65 282 0.0 1.0 0.00 0.00 0.00 69 1010.0
20260902150335 62 252 1.0 2.0 0.00 0.00 0.00 72 1010.3
20260902144831 65 263 1.0 1.0 0.00 0.00 0.00 65 1010.4
20260902143327 65 301 2.0 2.0 0.00 0.00 0.00 66 1010.4
20260902141826 64 314 3.0 3.0 0.00 0.00 0.00 68 1010.2
20260902140322 64 306 1.0 1.0 0.00 0.00 0.00 69 1010.5
20260902134822 62 316 3.0 3.0 0.00 0.00 0.00 72 1010.6
20260902133319 63 300 0.0 0.0 0.00 0.00 0.00 70 1010.6
20260902131817 64 312 1.0 1.0 0.00 0.00 0.00 69 1011.0
20260902130314 65 314 1.0 1.0 0.00 0.00 0.00 67 1011.4
20260902124813 64 315 0.0 1.0 0.00 0.00 0.00 69 1011.2
20260902123312 64 306 1.0 2.0 0.00 0.00 0.00 68 1011.3
20260902121811 64 296 1.0 1.0 0.00 0.00 0.00 70 1011.6
20260902120310 64 310 2.0 2.0 0.00 0.00 0.00 69 1011.8
20260902114809 61 307 0.0 0.0 0.00 0.00 0.00 76 1011.9
20260902113306 60 293 0.0 0.0 0.00 0.00 0.00 76 1012.1
20260902111803 61 298 0.0 0.0 0.00 0.00 0.00 75 1012.2
20260902110302 63 297 0.0 0.0 0.00 0.00 0.00 72 1012.2
20260902104758 61 292 0.0 0.0 0.00 0.00 0.00 74 1012.3
20260902103254 62 285 0.0 0.0 0.00 0.00 0.00 72 1012.3
20260902101748 63 287 0.0 0.0 0.00 0.00 0.00 71 1012.4
20260902100248 64 295 0.0 0.0 0.00 0.00 0.00 70 1012.5
20260902094744 64 278 0.0 1.0 0.00 0.00 0.00 68 1012.2
20260902093241 64 302 0.0 0.0 0.00 0.00 0.00 69 1012.2
20260902091740 65 279 0.0 0.0 0.00 0.00 0.00 67 1011.8
20260902090238 65 278 0.0 1.0 0.00 0.00 0.00 66 1011.6
20260902084735 67 301 1.0 1.0 0.00 0.00 0.00 62 1011.4
20260902083232 67 292 0.0 0.0 0.00 0.00 0.00 62 1011.3
20260902081731 69 286 0.0 1.0 0.00 0.00 0.00 58 1010.9
20260902080230 71 285 0.0 0.0 0.00 0.00 0.00 56 1011.4
20260902074725 72 294 1.0 1.0 0.00 0.00 0.00 53 1011.3
20260902073224 74 234 3.0 3.0 0.00 0.00 0.00 50 1011.1
20260902071724 75 186 2.0 3.0 0.00 0.00 0.00 50 1011.0
20260902070220 75 258 1.0 1.0 0.00 0.00 0.00 49 1010.7
20260902064716 78 241 1.0 1.0 0.00 0.00 0.00 46 1010.6
20260902063213 78 281 3.0 5.0 0.00 0.00 0.00 44 1010.5
20260902061713 79 195 7.0 9.0 0.00 0.00 0.00 43 1010.5
20260902060213 79 190 3.0 3.0 0.00 0.00 0.00 43 1010.6
20260902054711 79 170 3.0 6.0 0.00 0.00 0.00 44 1010.4
20260902053207 78 207 2.0 2.0 0.00 0.00 0.00 44 1010.6
20260902051707 80 219 6.0 9.0 0.00 0.00 0.00 42 1010.6
20260902050204 82 222 3.0 3.0 0.00 0.00 0.00 42 1010.7
20260902044701 81 185 3.0 5.0 0.00 0.00 0.00 41 1010.5
20260902043159 81 207 6.0 10.0 0.00 0.00 0.00 42 1010.6
20260902041700 82 196 4.0 5.0 0.00 0.00 0.00 40 1010.4
20260902040155 83 211 4.0 9.0 0.00 0.00 0.00 41 1010.4
20260902034654 82 174 13.0 17.0 0.00 0.00 0.00 38 1010.6
20260902033153 83 216 4.0 6.0 0.00 0.00 0.00 39 1010.6
20260902031653 82 230 3.0 5.0 0.00 0.00 0.00 38 1010.9
20260902030150 83 225 7.0 9.0 0.00 0.00 0.00 37 1011.2
20260902024646 82 187 4.0 6.0 0.00 0.00 0.00 39 1011.4